Retour au catalogue

STARLINK-34398

ActifCommunicationsVLEO
NORAD 64445·PAYLOAD·🇺🇸 United States

Lancé Jun 18, 2025 depuis Cape Canaveral Space Force Station

Loading…

Prochains Passages (prochaines 24 heures)

TLE

FraisSource: CelesTrak SupGP

Époque: Sep 15, 2026, 03:50 UTC

1 64445C 25130H   26258.16020833 -.00007315  00000+0 -21605-3 0  2582
2 64445  53.1565 287.0112 0001085 107.8277 209.1613 15.34406401    18

Suivez STARLINK-34398 en temps réel avec AllMySat

Download on the App Store